sat.trackr.live / text

‹ back to catalog

STARLINK-36758

NORAD 67926 · 2026-036Y

PAYLOAD ACTIVE UNKNOWN

§ Identity

Operator
Country
US
Launch date
2026-02-22
Launch site
AFETR
Launch vehicle
Mass (kg)
RCS (m²)

Purposes: comms

External: N2YO · Heavens-Above · Gunter

§ Orbital elements

Epoch: 2026-09-19T15:15:26.315136Z

Period
94.27 min
Inclination
42.9999°
Eccentricity
0.0001183
Mean motion
15.27589024 rev/d
Perigee alt
482.2 km
Apogee alt
483.8 km
Semi-major
6,861.2 km
B*
4.4050e-4
RAAN
229.9622°
Arg perigee
281.1747°
Mean anomaly
78.8971°
Rev number
3,338

§ Raw data

STARLINK-367581 67926U 26036Y   26262.63572124  .00011882  00000+0  44050-3 0  99902 67926  42.9999 229.9622 0001183 281.1747  78.8971 15.27589024 33389

JSON: /api/v1/satellites/67926 · /tle

For live sub-satellite position, see the globe view (requires WebGL).

§ Visibility from observer

Set your observer location to see the next 7 days of passes ≥ 10°. The values pass through the URL so the page stays shareable.

No JS? Fill the form by hand. The geolocation button needs JavaScript.